ONEWEB-0338 (49204 NORAD) Tracking and Keplerian Element Data

This shows tracking and keplerian element data for the satellite.

Feedback or suggestion? Click here.




ElementValue
Catalog49204
NameONEWEB-0338
Epoch Orbit776
Epoch Day300.58334491
Epoch Year2021
RAAN313.0622
Inclination87.2052
Eccentricity0.0022009
Argument of Perigee146.7287
Mean Anonmoly138.7111
Mean Motion14.89662877
Decay Rate-0.00029559
L11 49204U 21083U 21300.58334491 -.00029559 00000-0 -30981-2 0 9991
L22 49204 87.2052 313.0622 0022009 146.7287 138.7111 14.89662877 7760

Live tracking and technical data element details for ONEWEB-0338 (NORAD 49204). ONEWEB-0338 can be tracked NOW for your location showing map with azimuth and elevation plus other details from your city location.

Track the satellite on the map from your city or location and see movement details for azimuth, elevation, latitude, longitude, range, height, and movement on the map or in text.







IsCatalogInMostPopularTable: catalog: 49204, numindb: 17
Update: records affected: 1



GetName: 49204 ONEWEB-0338

Hit Count: updated at: Thu, 28 Oct 2021 10:48:55 GMT